KAC102 OMDB-OKKK

Flight info

Callsign KAC102
Flight time 1h 36m
Altitude 35000
Route RIDAP M557 TUMAK M600 KUMBO A453 DEBTI
Aircraft A35K/H-SDE2E3FGHIJ3J4J5M1RWXY/LB1D1

Departure

Time 2026-05-04 13:40
Airport Dubai International Airport (OMDB)

Arrival

Time 2026-05-04 15:16
Airport Kuwait International Airport (OKKK)
Time Latitude Longitude Altitude Speed Heading
2026-05-04 13:07 25.25656 55.34818 27 ft 0 kts 301°
2026-05-04 13:25 25.25648 55.34832 27 ft 4 kts 302°
2026-05-04 13:25 25.25633 55.34857 25 ft 4 kts 306°
2026-05-04 13:25 25.25618 55.34878 25 ft 3 kts 320°
2026-05-04 13:26 25.25601 55.34887 25 ft 2 kts
2026-05-04 13:26 25.25586 55.34884 25 ft 2 kts 27°
2026-05-04 13:26 25.25576 55.34878 26 ft 2 kts 31°
2026-05-04 13:26 25.25575 55.34877 25 ft 0 kts 31°
2026-05-04 13:31 25.25587 55.34885 25 ft 4 kts 31°
2026-05-04 13:31 25.25617 55.34905 26 ft 7 kts 31°
2026-05-04 13:31 25.25658 55.34933 27 ft 0 kts 31°
2026-05-04 13:32 25.25659 55.34934 27 ft 1 kts 31°
2026-05-04 13:32 25.25674 55.34944 27 ft 4 kts 31°
2026-05-04 13:32 25.25707 55.34966 27 ft 7 kts 31°
2026-05-04 13:32 25.25759 55.35001 27 ft 10 kts 31°
2026-05-04 13:33 25.25831 55.35049 27 ft 13 kts 31°
2026-05-04 13:33 25.25917 55.35107 27 ft 16 kts 31°
2026-05-04 13:33 25.26020 55.35176 27 ft 19 kts 31°
2026-05-04 13:33 25.26137 55.35254 28 ft 21 kts 31°
2026-05-04 13:34 25.26259 55.35336 30 ft 20 kts 31°
2026-05-04 13:34 25.26372 55.35412 30 ft 2 kts 31°
2026-05-04 13:34 25.26384 55.35420 29 ft 5 kts 31°
2026-05-04 13:34 25.26422 55.35454 28 ft 8 kts 57°
2026-05-04 13:35 25.26413 55.35522 28 ft 11 kts 115°
2026-05-04 13:35 25.26316 55.35701 27 ft 17 kts 122°
2026-05-04 13:35 25.26249 55.35818 28 ft 19 kts 122°
2026-05-04 13:36 25.26172 55.35954 28 ft 22 kts 121°
2026-05-04 13:36 25.26088 55.36105 28 ft 24 kts 122°
2026-05-04 13:36 25.25996 55.36268 28 ft 27 kts 122°
2026-05-04 13:36 25.25895 55.36449 29 ft 29 kts 122°
2026-05-04 13:37 25.25786 55.36643 28 ft 31 kts 122°
2026-05-04 13:37 25.25668 55.36852 28 ft 33 kts 121°
2026-05-04 13:37 25.25543 55.37075 28 ft 35 kts 122°
2026-05-04 13:37 25.25456 55.37229 28 ft 36 kts 122°
2026-05-04 13:38 25.25275 55.37550 29 ft 38 kts 122°
2026-05-04 13:38 25.25184 55.37712 29 ft 20 kts 122°
2026-05-04 13:38 25.25104 55.37853 28 ft 23 kts 122°
2026-05-04 13:38 25.25022 55.38002 28 ft 17 kts 122°
2026-05-04 13:39 25.24947 55.38113 28 ft 18 kts 150°
2026-05-04 13:39 25.24841 55.38075 31 ft 16 kts 220°
2026-05-04 13:39 25.24834 55.37976 31 ft 15 kts 300°
2026-05-04 13:39 25.24960 55.37750 31 ft 66 kts 301°
2026-05-04 13:40 25.25326 55.37090 32 ft 133 kts 300°
2026-05-04 13:40 25.25894 55.36067 256 ft 169 kts 301°
2026-05-04 13:40 25.26573 55.34888 699 ft 196 kts 303°
2026-05-04 13:40 25.27349 55.33539 1199 ft 219 kts 301°
2026-05-04 13:41 25.28186 55.32072 1861 ft 228 kts 302°
2026-05-04 13:41 25.28744 55.31090 2399 ft 228 kts 303°
2026-05-04 13:41 25.29560 55.29571 3162 ft 233 kts 298°
2026-05-04 13:42 25.30762 55.26192 4776 ft 235 kts 297°
2026-05-04 13:42 25.31521 55.24619 5673 ft 229 kts 304°
2026-05-04 13:42 25.32460 55.23226 6521 ft 224 kts 313°
2026-05-04 13:42 25.33573 55.21965 7085 ft 235 kts 317°
2026-05-04 13:43 25.34763 55.20690 7758 ft 240 kts 315°
2026-05-04 13:43 25.35666 55.19132 8536 ft 245 kts 291°
2026-05-04 13:43 25.35859 55.17255 9378 ft 248 kts 272°
2026-05-04 13:43 25.35785 55.15340 10157 ft 251 kts 270°
2026-05-04 13:44 25.35692 55.13400 10886 ft 255 kts 270°
2026-05-04 13:44 25.35605 55.11425 11615 ft 259 kts 270°
2026-05-04 13:44 25.35525 55.09421 12369 ft 263 kts 271°
2026-05-04 13:44 25.35447 55.07390 13132 ft 267 kts 270°
2026-05-04 13:45 25.35370 55.05326 13857 ft 270 kts 270°
2026-05-04 13:45 25.35293 55.03240 14564 ft 273 kts 270°
2026-05-04 13:45 25.35215 55.01135 15306 ft 274 kts 270°
2026-05-04 13:45 25.35138 54.99025 16088 ft 276 kts 270°
2026-05-04 13:46 25.35060 54.96901 16860 ft 278 kts 270°
2026-05-04 13:46 25.34981 54.94756 17591 ft 280 kts 270°
2026-05-04 13:46 25.34908 54.92594 18274 ft 283 kts 271°
2026-05-04 13:46 25.35039 54.90423 18898 ft 283 kts 282°
2026-05-04 13:47 25.35534 54.88311 19540 ft 284 kts 288°
2026-05-04 13:47 25.36135 54.86220 20157 ft 287 kts 288°
2026-05-04 13:47 25.36751 54.84108 20774 ft 290 kts 288°
2026-05-04 13:47 25.37367 54.81982 21410 ft 291 kts 287°
2026-05-04 13:48 25.37982 54.79845 22025 ft 293 kts 287°
2026-05-04 13:48 25.38602 54.77687 22620 ft 296 kts 287°
2026-05-04 13:48 25.39226 54.75507 23170 ft 299 kts 286°
2026-05-04 13:48 25.39854 54.73309 23666 ft 301 kts 286°
2026-05-04 13:49 25.40488 54.71094 24167 ft 302 kts 286°
2026-05-04 13:49 25.41124 54.68875 24688 ft 303 kts 286°
2026-05-04 13:49 25.41746 54.66686 25198 ft 303 kts 286°
2026-05-04 13:49 25.42380 54.64455 25704 ft 304 kts 286°
2026-05-04 13:50 25.43015 54.62219 26188 ft 306 kts 286°
2026-05-04 13:50 25.43667 54.59961 26634 ft 309 kts 287°
2026-05-04 13:50 25.44336 54.57693 27073 ft 312 kts 287°
2026-05-04 13:50 25.45017 54.55401 27514 ft 315 kts 287°
2026-05-04 13:51 25.45705 54.53087 27950 ft 318 kts 287°
2026-05-04 13:51 25.46398 54.50756 28384 ft 321 kts 287°
2026-05-04 13:51 25.47098 54.48394 28807 ft 324 kts 287°
2026-05-04 13:51 25.47803 54.46009 29204 ft 328 kts 287°
2026-05-04 13:52 25.49235 54.41156 29999 ft 335 kts 286°
2026-05-04 13:52 25.49961 54.38694 30323 ft 338 kts 286°
2026-05-04 13:52 25.50692 54.36211 30678 ft 341 kts 286°
2026-05-04 13:53 25.51429 54.33707 31022 ft 344 kts 286°
2026-05-04 13:53 25.52172 54.31179 31322 ft 347 kts 286°
2026-05-04 13:53 25.52913 54.28655 31622 ft 351 kts 286°
2026-05-04 13:54 25.54437 54.23468 32215 ft 358 kts 286°
2026-05-04 13:54 25.55216 54.20824 32455 ft 363 kts 286°
2026-05-04 13:54 25.56790 54.15458 33034 ft 370 kts 286°
2026-05-04 13:55 25.57586 54.12736 33315 ft 373 kts 286°
2026-05-04 13:55 25.59203 54.07207 33729 ft 381 kts 286°
2026-05-04 13:55 25.60020 54.04405 33741 ft 382 kts 285°
2026-05-04 13:56 25.61626 53.98782 33733 ft 383 kts 285°
2026-05-04 13:57 25.64025 53.90321 33740 ft 383 kts 285°
2026-05-04 13:58 25.67254 53.78940 33740 ft 402 kts 285°
2026-05-04 13:58 25.68974 53.72862 33741 ft 423 kts 285°
2026-05-04 13:58 25.69860 53.69716 33741 ft 433 kts 285°
2026-05-04 13:59 25.71695 53.63190 33738 ft 453 kts 285°
2026-05-04 14:00 25.74547 53.53038 33739 ft 462 kts 285°
2026-05-04 14:00 25.77415 53.42842 33741 ft 461 kts 285°
2026-05-04 14:01 25.79316 53.36053 33738 ft 460 kts 285°
2026-05-04 14:02 25.82159 53.25871 33738 ft 460 kts 285°
2026-05-04 14:02 25.84103 53.19095 33740 ft 462 kts 289°
2026-05-04 14:03 25.86616 53.12564 33741 ft 463 kts 291°
2026-05-04 14:03 25.89268 53.06043 33740 ft 464 kts 291°
2026-05-04 14:04 25.93272 52.96254 33741 ft 464 kts 291°
2026-05-04 14:04 25.95924 52.89728 33741 ft 464 kts 291°
2026-05-04 14:05 25.99894 52.79913 33741 ft 464 kts 291°
2026-05-04 14:06 26.02545 52.73368 33754 ft 464 kts 292°
2026-05-04 14:06 26.05395 52.66933 33741 ft 464 kts 294°
2026-05-04 14:07 26.08338 52.60551 33745 ft 463 kts 294°
2026-05-04 14:07 26.11252 52.54156 33743 ft 463 kts 294°
2026-05-04 14:08 26.14147 52.47753 33742 ft 464 kts 293°
2026-05-04 14:08 26.17041 52.41325 33755 ft 464 kts 293°
2026-05-04 14:09 26.21347 52.31747 33743 ft 462 kts 293°
2026-05-04 14:10 26.25584 52.22099 33744 ft 462 kts 292°
2026-05-04 14:10 26.28371 52.15601 33746 ft 462 kts 292°
2026-05-04 14:11 26.31131 52.09182 33761 ft 462 kts 292°
2026-05-04 14:11 26.35310 51.99512 33745 ft 461 kts 292°
2026-05-04 14:12 26.37942 51.93012 33746 ft 459 kts 288°
2026-05-04 14:13 26.41358 51.83028 33744 ft 459 kts 288°
2026-05-04 14:13 26.43589 51.76356 33746 ft 460 kts 287°
2026-05-04 14:14 26.45818 51.69669 33755 ft 459 kts 287°
2026-05-04 14:14 26.49165 51.59677 33753 ft 458 kts 287°
2026-05-04 14:15 26.53594 51.46318 33754 ft 459 kts 287°
2026-05-04 14:16 26.56915 51.36294 33770 ft 459 kts 287°
2026-05-04 14:17 26.60230 51.26281 33760 ft 457 kts 287°
2026-05-04 14:18 26.63525 51.16330 33757 ft 457 kts 287°
2026-05-04 14:19 26.67924 51.02998 33761 ft 457 kts 287°
2026-05-04 14:19 26.70109 50.96321 33761 ft 456 kts 286°
2026-05-04 14:20 26.72237 50.89643 33764 ft 455 kts 286°
2026-05-04 14:20 26.74358 50.82963 33772 ft 455 kts 286°
2026-05-04 14:21 26.77540 50.72966 33773 ft 455 kts 286°
2026-05-04 14:21 26.79665 50.66290 33771 ft 455 kts 286°
2026-05-04 14:22 26.81843 50.59642 33766 ft 454 kts 287°
2026-05-04 14:22 26.84109 50.53039 33769 ft 454 kts 287°
2026-05-04 14:23 26.87680 50.43260 33772 ft 458 kts 293°
2026-05-04 14:24 26.91176 50.37241 33770 ft 467 kts 304°
2026-05-04 14:24 26.95713 50.31942 33774 ft 473 kts 310°
2026-05-04 14:25 27.00564 50.26931 33771 ft 474 kts 311°
2026-05-04 14:25 27.07069 50.20309 33771 ft 474 kts 311°
2026-05-04 14:26 27.11922 50.15300 33788 ft 474 kts 310°
2026-05-04 14:26 27.16768 50.10266 33771 ft 474 kts 310°
2026-05-04 14:27 27.21607 50.05227 33775 ft 474 kts 310°
2026-05-04 14:27 27.26443 50.00187 33773 ft 474 kts 310°
2026-05-04 14:28 27.31275 49.95146 33766 ft 474 kts 310°
2026-05-04 14:28 27.36113 49.90094 33768 ft 475 kts 310°
2026-05-04 14:29 27.45787 49.79973 33795 ft 475 kts 310°
2026-05-04 14:30 27.50616 49.74912 33775 ft 474 kts 310°
2026-05-04 14:31 27.57869 49.67294 33774 ft 475 kts 310°
2026-05-04 14:32 27.67534 49.57127 33774 ft 474 kts 310°
2026-05-04 14:32 27.72321 49.52080 33754 ft 474 kts 310°
2026-05-04 14:33 27.77143 49.46987 33769 ft 475 kts 310°
2026-05-04 14:33 27.81971 49.41885 33772 ft 475 kts 310°
2026-05-04 14:33 27.84363 49.39360 33370 ft 465 kts 310°
2026-05-04 14:34 27.86700 49.36897 33070 ft 454 kts 310°
2026-05-04 14:34 27.88984 49.34488 32792 ft 443 kts 310°
2026-05-04 14:34 27.91191 49.32161 32434 ft 425 kts 310°
2026-05-04 14:34 27.93304 49.29931 31719 ft 412 kts 310°
2026-05-04 14:35 27.95373 49.27735 30867 ft 405 kts 310°
2026-05-04 14:35 27.97405 49.25571 30043 ft 397 kts 310°
2026-05-04 14:35 27.99396 49.23447 29098 ft 391 kts 310°
2026-05-04 14:35 28.01363 49.21349 28089 ft 386 kts 310°
2026-05-04 14:36 28.03308 49.19273 27108 ft 382 kts 310°
2026-05-04 14:36 28.05232 49.17220 26165 ft 378 kts 311°
2026-05-04 14:36 28.07128 49.15199 25396 ft 370 kts 311°
2026-05-04 14:36 28.08991 49.13216 24588 ft 365 kts 311°
2026-05-04 14:37 28.10831 49.11254 23769 ft 362 kts 312°
2026-05-04 14:37 28.12655 49.09308 22863 ft 359 kts 312°
2026-05-04 14:37 28.14469 49.07370 22160 ft 359 kts 312°
2026-05-04 14:37 28.16286 49.05427 21831 ft 358 kts 312°
2026-05-04 14:38 28.18073 49.03518 21772 ft 358 kts 312°
2026-05-04 14:38 28.19879 49.01588 21766 ft 357 kts 312°
2026-05-04 14:38 28.21687 48.99656 21767 ft 357 kts 312°
2026-05-04 14:38 28.23491 48.97728 21766 ft 356 kts 312°
2026-05-04 14:39 28.25296 48.95797 21769 ft 356 kts 312°
2026-05-04 14:39 28.27099 48.93869 21769 ft 356 kts 312°
2026-05-04 14:39 28.29064 48.92126 21772 ft 361 kts 320°
2026-05-04 14:40 28.33202 48.89167 21011 ft 340 kts 324°
2026-05-04 14:40 28.35231 48.87834 20273 ft 334 kts 325°
2026-05-04 14:40 28.37237 48.86536 19548 ft 329 kts 325°
2026-05-04 14:40 28.39209 48.85260 18846 ft 324 kts 325°
2026-05-04 14:41 28.41147 48.83996 18154 ft 319 kts 325°
2026-05-04 14:41 28.43050 48.82747 17371 ft 314 kts 325°
2026-05-04 14:41 28.46790 48.80270 15765 ft 308 kts 325°
2026-05-04 14:42 28.50428 48.77850 14249 ft 302 kts 326°
2026-05-04 14:42 28.52234 48.76648 13509 ft 299 kts 326°
2026-05-04 14:42 28.54025 48.75456 12698 ft 297 kts 326°
2026-05-04 14:43 28.55793 48.74281 11931 ft 293 kts 326°
2026-05-04 14:43 28.57405 48.72913 11145 ft 286 kts 312°
2026-05-04 14:43 28.58755 48.71276 10401 ft 282 kts 308°
2026-05-04 14:43 28.59997 48.69559 9727 ft 282 kts 306°
2026-05-04 14:44 28.61184 48.67785 9260 ft 280 kts 304°
2026-05-04 14:44 28.62335 48.66014 8811 ft 278 kts 304°
2026-05-04 14:44 28.63478 48.64244 8325 ft 277 kts 304°
2026-05-04 14:44 28.64627 48.62474 7917 ft 278 kts 305°
2026-05-04 14:45 28.65783 48.60708 7779 ft 279 kts 305°
2026-05-04 14:45 28.66950 48.58939 7767 ft 279 kts 305°
2026-05-04 14:45 28.68121 48.57174 7767 ft 279 kts 306°
2026-05-04 14:45 28.69292 48.55411 7768 ft 279 kts 306°
2026-05-04 14:46 28.70465 48.53646 7769 ft 279 kts 306°
2026-05-04 14:46 28.71636 48.51884 7769 ft 279 kts 306°
2026-05-04 14:46 28.72833 48.50141 7765 ft 280 kts 310°
2026-05-04 14:46 28.74307 48.48690 7770 ft 281 kts 322°
2026-05-04 14:47 28.75932 48.47467 7766 ft 282 kts 326°
2026-05-04 14:47 28.77634 48.46345 7767 ft 283 kts 329°
2026-05-04 14:47 28.79365 48.45283 7766 ft 282 kts 330°
2026-05-04 14:47 28.81106 48.44242 7766 ft 282 kts 330°
2026-05-04 14:48 28.82841 48.43203 7767 ft 282 kts 330°
2026-05-04 14:48 28.84580 48.42151 7769 ft 284 kts 329°
2026-05-04 14:48 28.86319 48.41088 7769 ft 284 kts 329°
2026-05-04 14:48 28.88037 48.40027 7769 ft 284 kts 329°
2026-05-04 14:49 28.89773 48.38950 7771 ft 284 kts 329°
2026-05-04 14:49 28.91510 48.37868 7771 ft 284 kts 329°
2026-05-04 14:49 28.93243 48.36788 7771 ft 284 kts 329°
2026-05-04 14:49 28.94977 48.35707 7771 ft 284 kts 329°
2026-05-04 14:50 28.96712 48.34625 7772 ft 284 kts 329°
2026-05-04 14:50 28.98451 48.33541 7772 ft 284 kts 329°
2026-05-04 14:50 29.00172 48.32468 7531 ft 280 kts 329°
2026-05-04 14:50 29.01885 48.31402 7042 ft 281 kts 329°
2026-05-04 14:51 29.03598 48.30339 6606 ft 279 kts 329°
2026-05-04 14:51 29.05271 48.29296 6407 ft 269 kts 329°
2026-05-04 14:51 29.06884 48.28289 6235 ft 258 kts 329°
2026-05-04 14:51 29.08431 48.27320 6007 ft 251 kts 330°
2026-05-04 14:52 29.09956 48.26363 5685 ft 248 kts 330°
2026-05-04 14:52 29.11459 48.25419 5353 ft 246 kts 330°
2026-05-04 14:52 29.12953 48.24484 5031 ft 243 kts 330°
2026-05-04 14:52 29.14412 48.23572 4753 ft 239 kts 331°
2026-05-04 14:53 29.15873 48.22664 4375 ft 238 kts 331°
2026-05-04 14:53 29.17324 48.21760 4002 ft 239 kts 332°
2026-05-04 14:53 29.18798 48.20834 3802 ft 244 kts 332°
2026-05-04 14:53 29.20278 48.19905 3770 ft 246 kts 332°
2026-05-04 14:54 29.21798 48.18953 3771 ft 246 kts 332°
2026-05-04 14:54 29.23280 48.18028 3769 ft 246 kts 333°
2026-05-04 14:54 29.24782 48.17094 3769 ft 246 kts 332°
2026-05-04 14:54 29.26284 48.16161 3770 ft 245 kts 332°
2026-05-04 14:55 29.27752 48.15245 3764 ft 232 kts 332°
2026-05-04 14:55 29.29124 48.14374 3766 ft 225 kts 332°
2026-05-04 14:55 29.30481 48.13512 3679 ft 218 kts 331°
2026-05-04 14:55 29.31789 48.12695 3469 ft 212 kts 331°
2026-05-04 14:56 29.33104 48.11872 3112 ft 221 kts 332°
2026-05-04 14:56 29.34472 48.11012 3006 ft 229 kts 332°
2026-05-04 14:56 29.35876 48.10132 2991 ft 231 kts 332°
2026-05-04 14:56 29.37277 48.09253 2991 ft 231 kts 332°
2026-05-04 14:57 29.38675 48.08375 2985 ft 227 kts 332°
2026-05-04 14:57 29.40021 48.07530 2935 ft 216 kts 332°
2026-05-04 14:57 29.41302 48.06660 2644 ft 214 kts 324°
2026-05-04 14:57 29.42306 48.05406 2504 ft 216 kts 301°
2026-05-04 14:58 29.42754 48.03771 2488 ft 218 kts 272°
2026-05-04 14:58 29.42493 48.02071 2500 ft 218 kts 249°
2026-05-04 14:58 29.41887 48.00489 2487 ft 217 kts 240°
2026-05-04 14:58 29.41132 47.98984 2490 ft 218 kts 236°
2026-05-04 14:59 29.40458 47.97431 2490 ft 219 kts 255°
2026-05-04 14:59 29.40193 47.95710 2492 ft 218 kts 263°
2026-05-04 14:59 29.39916 47.92338 2105 ft 211 kts 263°
2026-05-04 15:00 29.39792 47.90655 2009 ft 212 kts 263°
2026-05-04 15:00 29.39668 47.88974 1992 ft 212 kts 264°
2026-05-04 15:00 29.39230 47.87401 1984 ft 205 kts 230°
2026-05-04 15:01 29.36879 47.86323 2009 ft 190 kts 157°
2026-05-04 15:01 29.35734 47.87054 1994 ft 190 kts 149°
2026-05-04 15:01 29.34434 47.87390 2007 ft 194 kts 175°
2026-05-04 15:01 29.33117 47.87625 2000 ft 193 kts 158°
2026-05-04 15:02 29.31891 47.88226 1984 ft 192 kts 146°
2026-05-04 15:02 29.30816 47.89120 1991 ft 192 kts 144°
2026-05-04 15:02 29.29641 47.89828 2002 ft 189 kts 151°
2026-05-04 15:02 29.28503 47.90554 1970 ft 183 kts 144°
2026-05-04 15:03 29.27460 47.91316 1991 ft 178 kts 149°
2026-05-04 15:03 29.26369 47.91920 2100 ft 172 kts 155°
2026-05-04 15:03 29.25248 47.92439 2034 ft 173 kts 153°
2026-05-04 15:03 29.24180 47.93013 2150 ft 169 kts 150°
2026-05-04 15:04 29.23132 47.93667 2383 ft 178 kts 151°
2026-05-04 15:04 29.21931 47.94334 2641 ft 204 kts 153°
2026-05-04 15:04 29.20591 47.95051 2942 ft 219 kts 153°
2026-05-04 15:04 29.19205 47.95800 2991 ft 221 kts 153°
2026-05-04 15:05 29.17762 47.96410 2994 ft 224 kts 169°
2026-05-04 15:05 29.16218 47.96178 2992 ft 230 kts 201°
2026-05-04 15:05 29.14972 47.95024 3001 ft 236 kts 233°
2026-05-04 15:05 29.14282 47.93330 2993 ft 237 kts 250°
2026-05-04 15:06 29.13822 47.91513 2991 ft 238 kts 253°
2026-05-04 15:06 29.13614 47.89633 2993 ft 242 kts 276°
2026-05-04 15:06 29.14199 47.87860 2990 ft 239 kts 307°
2026-05-04 15:07 29.16840 47.85653 2995 ft 238 kts 333°
2026-05-04 15:07 29.18287 47.84741 2995 ft 236 kts 333°
2026-05-04 15:07 29.19740 47.83854 2996 ft 238 kts 333°
2026-05-04 15:07 29.21212 47.82980 2995 ft 238 kts 333°
2026-05-04 15:08 29.22707 47.82171 2992 ft 238 kts 340°
2026-05-04 15:08 29.24269 47.81543 2994 ft 237 kts 343°
2026-05-04 15:08 29.25810 47.80969 2993 ft 236 kts 344°
2026-05-04 15:08 29.27378 47.80382 2991 ft 238 kts 344°
2026-05-04 15:09 29.28927 47.79807 2862 ft 229 kts 343°
2026-05-04 15:09 29.30410 47.79248 2709 ft 220 kts 343°
2026-05-04 15:09 29.31874 47.78694 2320 ft 225 kts 344°
2026-05-04 15:10 29.34991 47.78029 1998 ft 231 kts 17°
2026-05-04 15:10 29.36373 47.78861 1999 ft 223 kts 49°
2026-05-04 15:10 29.38085 47.81734 1989 ft 219 kts 62°
2026-05-04 15:11 29.38792 47.83222 1970 ft 202 kts 64°
2026-05-04 15:11 29.39442 47.84600 2008 ft 193 kts 65°
2026-05-04 15:11 29.39745 47.86041 2004 ft 187 kts 96°
2026-05-04 15:11 29.39398 47.87458 1998 ft 185 kts 114°
2026-05-04 15:12 29.38723 47.88706 1989 ft 186 kts 133°
2026-05-04 15:12 29.37689 47.89587 1984 ft 188 kts 157°
2026-05-04 15:12 29.36837 47.89765 2000 ft 190 kts 175°
2026-05-04 15:12 29.35511 47.89665 1992 ft 192 kts 182°
2026-05-04 15:13 29.34186 47.89458 1991 ft 194 kts 183°
2026-05-04 15:13 29.32861 47.89240 1978 ft 187 kts 184°
2026-05-04 15:13 29.31617 47.89039 1786 ft 176 kts 184°
2026-05-04 15:13 29.30415 47.88852 1550 ft 174 kts 184°
2026-05-04 15:14 29.29208 47.88675 1442 ft 175 kts 181°
2026-05-04 15:14 29.28019 47.88731 1301 ft 169 kts 166°
2026-05-04 15:14 29.26965 47.89249 1109 ft 161 kts 141°
2026-05-04 15:14 29.26174 47.90106 853 ft 149 kts 133°
2026-05-04 15:15 29.25552 47.90951 925 ft 150 kts 117°
2026-05-04 15:15 29.25255 47.92097 798 ft 154 kts 99°
2026-05-04 15:15 29.24823 47.93157 619 ft 154 kts 134°
2026-05-04 15:16 29.22851 47.94209 225 ft 142 kts 162°
2026-05-04 15:16 29.21946 47.94682 206 ft 129 kts 158°
2026-05-04 15:16 29.21122 47.95098 193 ft 42 kts 155°
2026-05-04 15:17 29.20857 47.95240 200 ft 42 kts 155°
2026-05-04 15:17 29.20559 47.95547 200 ft 17 kts 96°
2026-05-04 15:17 29.20560 47.95558 194 ft 0 kts 84°
2026-05-04 15:20 29.20561 47.95571 194 ft 3 kts 80°
2026-05-04 15:20 29.20583 47.95601 198 ft 6 kts 30°
2026-05-04 15:20 29.20639 47.95600 206 ft 11 kts 344°
2026-05-04 15:20 29.20729 47.95555 207 ft 17 kts 335°
2026-05-04 15:21 29.20858 47.95486 199 ft 23 kts 335°
2026-05-04 15:21 29.21021 47.95402 201 ft 29 kts 336°
2026-05-04 15:21 29.21445 47.95176 204 ft 37 kts 335°
2026-05-04 15:22 29.21684 47.95048 204 ft 39 kts 335°
2026-05-04 15:22 29.21908 47.94944 203 ft 22 kts
2026-05-04 15:22 29.22078 47.95292 182 ft 30 kts 65°
2026-05-04 15:23 29.22172 47.95522 177 ft 34 kts 65°
2026-05-04 15:23 29.22275 47.95777 171 ft 37 kts 65°
2026-05-04 15:23 29.22369 47.96007 167 ft 22 kts 65°
2026-05-04 15:23 29.22439 47.96175 171 ft 24 kts 64°
2026-05-04 15:24 29.22582 47.96525 183 ft 25 kts 65°
2026-05-04 15:24 29.22794 47.96574 205 ft 19 kts 333°
2026-05-04 15:25 29.22925 47.96500 200 ft 23 kts 335°
2026-05-04 15:25 29.22980 47.96479 203 ft 6 kts 352°
2026-05-04 15:25 29.23008 47.96495 206 ft 4 kts 54°
2026-05-04 15:26 29.23024 47.96532 209 ft 0 kts 64°
2026-05-04 15:26 29.23034 47.96556 209 ft 6 kts 64°
2026-05-04 15:26 29.23098 47.96717 207 ft 8 kts 66°
2026-05-04 15:27 29.23103 47.96729 209 ft 0 kts 66°
2026-05-04 15:27 29.23105 47.96734 209 ft 3 kts 66°
2026-05-04 15:28 29.23165 47.96850 206 ft 13 kts 21°
2026-05-04 15:28 29.23266 47.96818 203 ft 18 kts 335°
2026-05-04 15:28 29.23564 47.96659 201 ft 29 kts 335°
2026-05-04 15:29 29.23764 47.96553 200 ft 34 kts 334°
2026-05-04 15:30 29.24640 47.96087 167 ft 41 kts 335°
2026-05-04 15:30 29.25040 47.95889 152 ft 11 kts
2026-05-04 15:31 29.25195 47.95896 151 ft 7 kts 57°
2026-05-04 15:31 29.25214 47.95935 150 ft 1 kts 65°
2026-05-04 15:32 29.25215 47.95937 150 ft 0 kts 65°